Time,TemperatureF,DewpointF,PressureIn,WindDirection,WindDirectionDegrees,WindSpeedMPH,WindSpeedGustMPH,Humidity,HourlyPrecipIn,Conditions,Clouds,dailyrainin,SoftwareType,DateUTC
2013-11-23 01:22:00,31.0,28.0,30.20,WNW,285,10.0,20.0,87,-99.99,,,-99.99,,2013-11-23 06:22:00,
2013-11-23 01:42:00,30.0,28.0,30.20,West,280,7.0,16.0,91,-99.99,,,-99.99,,2013-11-23 06:42:00,
2013-11-23 01:52:00,30.0,28.0,30.20,WNW,290,8.0,17.0,92,-99.99,,,-99.99,,2013-11-23 06:52:00,
2013-11-23 02:22:00,30.0,23.0,30.20,West,270,8.0,23.0,77,-99.99,,,-99.99,,2013-11-23 07:22:00,
2013-11-23 02:32:00,30.0,23.0,30.20,West,270,8.0,23.0,77,-99.99,,,-99.99,,2013-11-23 07:32:00,
2013-11-23 02:42:00,30.0,23.0,30.20,West,270,8.0,23.0,77,-99.99,,,-99.99,,2013-11-23 07:42:00,
2013-11-23 03:52:00,26.0,21.0,30.20,WNW,285,9.0,22.0,79,-99.99,,,-99.99,,2013-11-23 08:52:00,
2013-11-23 04:22:00,26.0,20.0,30.22,WNW,285,10.0,16.0,78,-99.99,,,-99.99,,2013-11-23 09:22:00,
2013-11-23 05:23:00,26.0,22.0,30.22,WNW,290,6.0,11.0,88,-99.99,,,-99.99,,2013-11-23 10:23:00,
2013-11-23 06:23:00,24.0,19.0,30.20,WNW,290,12.0,24.0,79,-99.99,,,-99.99,,2013-11-23 11:23:00,
2013-11-23 07:22:00,22.0,17.0,30.31,NW,305,10.0,18.0,82,-99.99,,,-99.99,,2013-11-23 12:22:00,
2013-11-23 07:42:00,22.0,17.0,30.31,WNW,300,14.0,28.0,80,-99.99,,,-99.99,,2013-11-23 12:42:00,
2013-11-23 07:52:00,22.0,16.0,30.31,WNW,295,13.0,25.0,77,-99.99,,,-99.99,,2013-11-23 12:52:00,
2013-11-23 08:22:00,21.0,13.0,30.31,WNW,290,12.0,24.0,71,-99.99,,,-99.99,,2013-11-23 13:22:00,
2013-11-23 09:22:00,20.0,11.0,30.31,WNW,290,13.0,27.0,69,-99.99,,,-99.99,,2013-11-23 14:22:00,
2013-11-23 10:22:00,21.0,10.0,30.36,WNW,300,13.0,24.0,63,-99.99,,,-99.99,,2013-11-23 15:22:00,
2013-11-23 10:43:00,21.0,11.0,30.36,NW,315,12.0,21.0,67,-99.99,,,-99.99,,2013-11-23 15:43:00,
2013-11-23 11:23:00,21.0,11.0,30.36,NW,315,13.0,29.0,67,-99.99,,,-99.99,,2013-11-23 16:23:00,
2013-11-23 12:22:00,22.0,11.0,30.38,NNW,335,15.0,27.0,62,-99.99,,,-99.99,,2013-11-23 17:22:00,
2013-11-23 13:22:00,22.0,15.0,30.38,WNW,290,7.0,21.0,73,-99.99,,,-99.99,,2013-11-23 18:22:00,
2013-11-23 14:22:00,21.0,10.0,30.42,NW,325,13.0,29.0,62,-99.99,,,-99.99,,2013-11-23 19:22:00,
2013-11-23 14:32:00,21.0,10.0,30.42,NW,325,13.0,29.0,62,-99.99,,,-99.99,,2013-11-23 19:32:00,
2013-11-23 14:42:00,21.0,10.0,30.42,NW,325,13.0,29.0,62,-99.99,,,-99.99,,2013-11-23 19:42:00,
2013-11-23 16:22:00,21.0,12.0,30.43,WNW,290,8.0,17.0,69,-99.99,,,-99.99,,2013-11-23 21:22:00,
2013-11-23 16:53:00,20.0,13.0,30.43,NW,310,13.0,21.0,72,-99.99,,,-99.99,,2013-11-23 21:53:00,
2013-11-23 19:22:00,19.0,17.0,30.48,WNW,300,6.0,10.0,92,-99.99,,,-99.99,,2013-11-24 00:22:00,
2013-11-23 19:32:00,19.0,17.0,30.48,WNW,300,6.0,10.0,92,-99.99,,,-99.99,,2013-11-24 00:32:00,
2013-11-23 20:22:00,19.0,15.0,30.48,West,275,6.0,10.0,86,-99.99,,,-99.99,,2013-11-24 01:22:00,
2013-11-23 20:42:00,18.0,15.0,30.48,West,260,4.0,9.0,86,-99.99,,,-99.99,,2013-11-24 01:42:00,
2013-11-23 21:22:00,20.0,17.0,30.48,West,275,4.0,10.0,89,-99.99,,,-99.99,,2013-11-24 02:22:00,
2013-11-23 23:03:00,-999.0,-99.9,30.49,West,265,5.0,11.0,-999,-99.99,,,-99.99,,2013-11-24 04:03:00,
2013-11-23 23:23:00,20.0,18.0,30.49,WNW,295,3.0,9.0,93,-99.99,,,-99.99,,2013-11-24 04:23:00,